EHI
0 0 0 0 0 0 0 0 0 0 0 0 0 0 0 0 0 0 0 0 0 0 0 0 0 0 0 0 0 0 0 0 0 0 0 0 0 0 0 0 0 0 0 0
0 0 0 0 0 0 0 0 0 0 0 0 0 0 0 0 0 0 0 0 0 0 0 0 0 0 0 0 0 0 0 0 0 0 0 0 0 0 0 0 0 0 0 0
0 0 0 0 0 0 0 0 0 0 0 0 0 0 0 0 0 0 0 0 0 0 0 0 1 1 1 1 0 0 0 0 0 0 0 0 0 0 0 0 0 0 0 0
0 0 0 0 0 0 0 0 0 0 0 0 0 0 0 0 0 0 0 0 0 0 0 1 2 2 2 1 0 0 0 0 0 0 0 0 0 0 0 0 0 0 0 0
0 0 0 0 0 0 0 0 0 0 0 0 0 0 0 0 0 0 0 0 0 0 0 1 2 2 1 0 0 0 0 0 0 0 0 0 0 0 0 0 0 0 0 0
0 0 0 0 0 0 0 0 0 0 0 0 0 0 0 0 0 0 0 0 0 0 0 0 1 2 1 0 0 0 0 0 0 0 0 0 0 0 0 0 0 0 0 0
0 0 0 0 0 0 0 0 0 0 0 0 0 0 0 0 0 0 0 0 0 0 0 0 1 2 1 0 0 0 0 0 0 0 0 0 0 0 0 0 0 0 0 0
0 0 0 0 0 0 0 0 0 0 0 0 0 0 0 0 0 0 0 0 0 0 0 0 0 1 1 0 0 0 0 0 0 0 0 0 0 0 0 0 0 0 0 0
0 0 0 0 0 0 0 0 0 0 0 0 0 0 0 0 0 0 0 0 0 0 0 0 0 0 0 0 0 0 0 0 0 0 0 0 0 0 0 0 0 0 0 0
0 0 0 0 0 0 0 0 0 0 0 0 0 0 0 0 0 0 0 0 0 0 0 0 0 0 0 0 0 0 0 0 0 0 0 0 0 0 0 0 0 0 0 0
0 0 0 0 0 0 0 0 0 0 0 0 0 0 0 0 0 0 0 0 0 0 0 0 0 0 0 0 0 0 0 0 0 0 0 0 0 0 0 0 0 0 0 0
0 0 0 0 0 0 0 0 0 0 0 0 0 0 0 0 0 0 0 0 0 0 0 0 0 0 0 0 0 0 0 0 0 0 0 0 0 0 0 0 0 0 0 0
0 0 0 0 0 0 0 0 0 0 0 0 0 0 0 0 0 0 0 0 0 0 0 0 0 0 0 0 0 0 0 0 0 0 0 0 0 0 0 0 0 0 0 0
0 0 0 0 0 0 0 0 0 0 0 0 0 0 0 0 0 0 0 0 0 0 0 0 0 0 0 0 0 0 0 0 0 0 0 0 0 0 0 0 0 0 0 0
0 0 0 0 0 0 0 0 0 0 0 0 0 0 0 0 0 0 0 0 0 0 0 0 0 0 0 0 0 0 0 0 0 0 0 0 0 0 0 0 0 0 0 0
0 0 0 0 0 0 0 0 0 0 0 0 0 0 0 0 0 0 0 0 0 0 0 0 0 0 0 0 0 0 0 0 0 0 0 0 0 0 0 0 0 0 0 0
0 0 0 0 0 0 0 0 0 0 0 0 0 0 0 0 0 0 0 0 0 0 0 0 0 0 0 0 0 0 0 0 0 0 0 0 0 0 0 0 0 0 0 0
0 0 0 0 0 0 0 0 0 0 0 0 0 0 0 0 0 0 0 0 0 0 0 0 0 0 0 0 0 0 0 0 0 0 0 0 0 0 0 0 0 0 0 0
0 0 0 0 0 0 0 0 0 0 0 0 0 0 0 0 0 0 0 0 0 0 0 0 0 0 0 0 0 0 0 0 0 0 0 0 0 0 0 0 0 0 0 0
0 0 0 0 0 0 0 0 0 0 0 0 0 0 0 0 0 0 0 0 0 0 0 0 0 0 0 0 0 0 0 0 0 0 0 0 0 0 0 0 0 0 0 0
0 0 0 0 0 0 0 0 0 0 0 0 0 0 0 0 0 0 0 0 0 0 0 0 0 0 0 0 0 0 0 0 0 0 0 0 0 0 0 0 0 0 0 0
0 0 0 0 0 0 0 0 0 0 0 0 0 0 0 0 0 0 0 0 0 0 0 0 0 0 0 0 0 0 0 0 0 0 0 0 0 0 0 0 0 0 0 0
0 0 0 0 0 0 0 0 0 0 0 0 0 0 0 0 0 0 0 0 0 0 0 0 0 0 0 0 0 0 0 0 0 0 0 0 0 0 0 0 0 0 0 0
0 0 0 0 0 0 0 0 0 0 0 0 0 0 0 0 0 0 0 0 0 0 0 0 0 0 0 0 0 0 0 0 0 0 0 0 0 0 0 0 0 0 0 0
0 0 0 0 0 0 0 0 0 0 0 0 0 0 0 0 0 0 0 0 0 0 0 0 0 0 0 0 0 0 0 0 0 0 0 0 0 0 0 0 0 0 0 0
0 0 0 0 0 0 0 0 0 0 0 0 0 0 0 0 0 0 0 0 0 0 0 0 0 0 0 0 0 0 0 0 0 0 0 0 0 0 0 0 0 0 0 0
Wind_Speed
6 7 7 7 4 3 4 5 5 4 2 1 0 1 3 3 2 2 2 3 3 4 4 4 6 7 8 8 8 8 8 7 6 4 3 2 2 1 1 1 2 2 3 4
8 7 6 6 5 3 4 5 5 5 3 0 2 4 5 5 3 2 1 1 1 2 2 3 5 7 8 9 9 9 8 8 7 4 2 1 1 1 1 1 1 2 3 4
7 7 7 7 7 5 4 3 4 3 3 2 2 7 7 7 6 5 3 2 2 1 2 1 3 5 7 8 9 8 8 8 7 6 3 2 2 2 2 2 1 2 2 3
5 6 8 7 6 4 5 2 1 1 3 4 0 7 8 7 8 7 6 4 3 2 2 2 1 3 5 7 7 8 8 8 8 7 5 4 3 2 2 2 1 2 2 2
6 7 8 7 4 3 4 2 1 1 3 5 2 5 8 6 7 8 8 7 6 5 3 2 1 0 2 4 5 6 8 8 8 7 6 5 4 2 2 2 2 3 1 2
6 4 3 3 3 2 5 5 4 4 5 5 3 2 7 6 7 7 7 8 8 7 6 4 3 2 2 3 4 5 7 7 7 8 7 7 5 4 3 3 3 3 2 2
8 6 4 3 6 5 6 6 5 6 5 5 3 2 7 7 6 6 7 8 8 8 7 6 5 3 2 3 4 5 6 7 7 8 8 7 6 6 5 4 3 4 3 2
9 9 5 4 3 4 3 4 2 3 5 6 4 5 7 6 6 6 6 7 8 9 8 7 6 3 2 2 3 4 5 6 7 8 8 7 7 5 4 5 4 4 3 3
7 8 5 2 0 2 4 2 3 1 4 4 6 7 7 6 7 8 9 10 11 10 9 8 7 5 3 1 2 3 4 5 6 7 7 7 7 7 6 6 6 4 4 3
2 8 6 5 5 4 3 2 3 3 4 4 6 5 3 4 6 8 9 10 10 10 10 9 8 6 5 3 1 1 2 4 4 5 6 5 7 7 7 6 6 6 5 4
2 6 7 6 4 4 5 3 1 1 1 2 4 5 5 4 5 6 7 8 9 9 10 9 8 8 6 5 3 1 1 2 3 5 5 6 6 7 7 7 7 7 6 6
1 3 6 5 3 2 2 1 4 3 3 1 1 5 5 4 4 5 6 8 8 9 9 9 9 9 8 7 5 4 3 2 3 4 5 5 5 6 7 8 8 8 7 7
3 5 6 7 7 5 3 2 2 2 3 4 4 5 6 5 5 5 6 7 8 9 9 9 9 9 9 8 7 6 4 4 3 3 4 5 5 6 7 8 8 8 8 8
4 4 4 3 1 4 5 5 5 6 5 4 4 4 5 3 4 5 5 6 7 9 10 10 9 9 9 8 7 7 6 5 4 3 3 4 5 6 7 7 7 8 8 9
5 4 2 1 2 2 3 5 7 7 6 6 3 4 4 4 3 4 4 6 7 9 10 10 10 10 9 9 8 8 7 6 4 3 3 4 5 5 6 7 7 8 8 9
3 4 4 4 3 3 5 5 7 6 5 4 3 3 4 5 5 5 5 6 7 8 9 10 10 10 10 10 9 8 7 6 5 5 5 5 5 5 6 7 7 7 8 9
3 6 6 6 4 5 9 7 8 6 5 6 6 4 8 7 6 5 5 5 6 7 8 9 9 10 9 10 9 8 8 7 6 6 6 6 6 6 6 7 7 7 8 9
5 6 5 5 6 10 2 4 3 4 4 3 2 6 8 7 7 5 4 5 5 6 6 7 8 9 9 9 9 8 8 8 8 8 8 7 7 7 7 7 8 8 9 8
5 6 6 6 7 5 3 5 6 6 5 5 6 7 8 8 8 6 4 4 4 5 5 6 7 8 8 9 9 9 8 8 8 9 9 9 8 8 8 8 9 9 8 9
5 6 7 7 8 7 3 7 5 5 6 7 7 8 8 8 6 4 4 2 2 3 4 5 6 7 8 9 9 9 9 9 10 10 10 10 10 9 9 10 10 9 8 9
8 7 10 10 9 5 6 7 8 8 3 9 8 8 8 6 0 5 4 2 2 2 3 4 5 6 7 8 9 9 10 10 11 11 11 11 10 10 10 10 9 9 9 9
8 8 9 8 10 5 9 9 8 2 7 8 8 7 6 4 4 4 3 2 1 1 3 4 4 5 6 8 9 9 10 11 11 11 11 11 11 10 9 10 10 10 9 10
6 4 3 5 1 6 7 5 3 4 6 6 6 6 6 5 5 4 3 2 1 1 2 3 5 6 6 7 9 10 10 11 11 11 11 11 12 10 10 10 10 9 8 8
5 3 4 4 4 5 5 4 5 5 5 5 6 6 6 6 5 4 3 2 2 2 2 3 5 6 7 8 9 9 11 11 12 12 12 11 12 11 11 9 9 9 8 8
5 7 6 6 5 5 6 7 7 6 6 6 6 5 5 5 5 4 3 3 2 2 3 4 5 6 8 8 9 10 10 11 12 12 12 12 11 11 11 10 9 10 10 9
8 9 8 6 7 7 7 8 8 8 7 6 6 6 5 5 5 4 4 3 3 3 4 5 6 7 8 9 9 10 10 11 12 12 11 10 10 10 10 11 11 10 12 13
Wind_Direction
169 180 173 165 154 102 138 143 133 106 82 250 213 65 84 94 121 139 164 191 208 219 217 213 215 209 206 204 201 191 190 181 174 172 191 206 212 230 250 307 347 321 324 332
163 172 156 144 146 155 153 143 130 114 79 348 84 90 83 74 71 66 59 138 210 237 223 195 204 202 205 202 198 195 191 184 184 180 183 196 241 259 295 274 266 297 320 327
154 133 152 162 160 156 135 130 109 103 132 139 134 112 96 89 88 80 64 36 22 322 287 236 204 205 202 203 199 196 191 184 186 176 168 168 186 226 219 237 255 289 308 316
123 138 165 165 158 169 125 84 124 164 184 113 53 113 92 88 88 73 62 52 34 9 335 325 248 207 204 203 200 198 191 189 183 180 192 201 229 262 287 286 274 258 270 300
127 154 165 159 149 182 96 109 142 171 153 139 106 128 103 93 77 60 51 46 37 26 15 5 358 270 198 189 192 195 189 190 186 192 195 216 236 258 266 262 255 268 266 281
113 144 173 133 121 158 146 163 152 181 190 137 67 128 103 70 42 37 37 38 37 33 34 34 41 64 106 147 175 187 190 191 190 198 204 220 234 243 250 254 262 262 256 263
139 143 145 168 152 157 206 209 177 172 168 116 80 109 86 56 33 23 21 29 34 36 37 41 45 61 93 142 169 184 190 193 197 205 214 221 231 240 246 255 251 265 272 265
152 147 162 190 211 169 192 253 243 165 149 131 153 117 87 58 46 42 43 41 41 40 35 34 32 39 70 132 169 187 196 202 201 211 218 224 225 235 245 247 262 263 274 282
155 129 126 142 183 230 174 167 354 82 129 151 128 121 114 83 67 55 50 45 39 34 33 31 29 29 41 87 165 194 203 210 211 219 223 227 228 230 240 244 249 257 262 267
153 133 131 144 160 61 360 121 200 212 174 158 146 148 119 70 46 42 41 38 34 31 33 33 31 29 30 33 41 194 225 230 223 227 228 230 234 233 239 247 246 251 256 257
210 158 149 174 204 160 160 169 172 135 292 228 164 118 54 52 43 38 40 36 31 30 31 31 32 33 33 38 40 33 272 255 246 240 236 232 233 238 239 240 245 249 252 245
227 216 158 143 91 343 262 216 224 226 160 263 226 107 86 81 63 49 46 45 41 37 36 37 35 36 35 32 28 22 359 317 280 263 252 248 245 241 243 243 243 245 248 249
182 216 172 161 165 171 171 153 225 240 203 217 228 125 116 101 83 68 58 52 49 45 42 40 37 35 31 28 23 18 7 348 323 285 266 259 253 251 251 252 250 249 249 249
258 227 249 235 120 160 169 166 194 217 229 225 231 150 145 120 93 76 68 58 53 48 43 38 33 32 27 24 21 17 10 360 346 320 283 273 270 264 261 259 257 254 253 252
250 226 193 87 99 182 199 192 201 228 252 257 225 181 158 142 119 94 80 67 57 46 38 33 28 24 21 21 18 16 8 360 352 340 317 302 291 281 272 264 258 257 256 257
247 217 193 186 173 212 225 220 215 223 237 228 190 171 124 131 126 112 86 68 56 44 34 28 25 22 16 14 10 9 4 359 349 342 332 322 309 300 287 276 265 261 257 257
200 216 228 225 178 233 236 223 212 205 208 207 211 166 144 146 135 111 85 68 54 41 30 24 21 18 11 8 3 0 357 354 351 346 339 330 317 305 294 287 277 266 259 255
222 214 228 235 210 239 85 78 185 182 184 198 148 137 155 148 133 117 86 67 54 38 26 20 14 12 8 6 3 358 356 355 353 348 339 333 323 311 301 292 282 272 268 262
246 213 217 229 236 244 180 166 172 184 176 173 161 147 145 144 155 142 96 60 47 32 20 14 6 3 3 4 359 354 356 355 353 347 337 331 323 316 306 294 285 279 272 268
193 224 226 219 233 239 158 143 163 197 187 167 170 158 158 171 201 148 120 89 54 32 20 9 2 360 1 360 354 350 352 352 349 341 332 328 323 314 306 298 292 284 273 269
177 195 219 224 235 239 115 141 171 207 159 154 173 169 175 193 156 102 129 120 69 35 15 1 359 1 357 351 348 348 350 349 343 335 329 324 321 315 308 303 296 289 281 275
195 191 203 212 226 212 138 164 196 104 106 152 166 171 175 165 128 137 146 142 88 16 4 352 349 352 348 345 343 343 344 339 334 330 327 324 321 317 312 307 301 295 287 279
218 223 212 219 185 85 152 166 114 122 147 153 162 166 169 171 172 171 174 178 224 317 336 338 338 336 338 342 341 335 335 331 327 325 325 323 321 319 314 310 304 298 289 281
182 190 209 211 193 168 170 168 163 164 157 155 160 165 175 182 181 185 193 207 237 283 317 323 324 327 333 335 332 328 327 324 322 322 322 321 321 322 320 314 305 300 295 290
183 184 205 214 184 176 192 190 176 165 162 163 168 175 182 187 194 200 208 220 243 273 296 308 317 324 324 326 327 328 327 324 320 319 320 320 321 319 315 311 306 299 294 292
197 200 205 215 191 194 184 176 174 174 177 178 179 182 187 196 202 210 220 229 246 271 291 301 310 312 315 320 322 324 323 320 318 319 321 320 317 315 312 310 307 290 275 277